Location: Altavilla Irpina
(41.0000°N, 14.7833°E)
Time: 01:57:41
(UTC+00:00)

ASTEX 1 - Pass Details

Date: 19 May 2025
Orbit: 714 x 734 km, 92.7° (Epoch: 23 June)

Event Time Altitude Azimuth Distance (km) Brightness Sun altitude
Rises 23:19:44 0° 1° (N) 3,161 7.9 -28.8°
Reaches altitude 10° 23:22:03 10° 357° (N) 2,238 6.8 -28.7°
Enters shadow 23:26:13 51° 311° (NW) 921 4.0 -28.6°
